Location: Algiers Regional Library
(29.9237°N, 90.0142°W)
Time: 23:26:59
(UTC+00:00)

Daily predictions for brighter satellites

Satellite Brightness Start Highest point End
(mag) Time Altitude Azimuth Time Altitude Azimuth Time Altitude Azimuth
Cosmos 1689 Rocket 2.0 12:02:19 10° SSE 12:05:08 84° ENE 12:07:57 10° N
NOAA 6 4.1 12:00:23 10° NNE 12:05:33 87° WNW 12:10:41 10° SSW
Mugunghwa Rocket 4.3 12:00:10 10° W 12:06:23 57° S 12:12:34 10° ESE
YAOGAN 6 3.1 12:03:22 10° N 12:06:36 34° WNW 12:09:47 10° SW
